Date String (YYYY-MM-DD hh:mm:ss) UTC,Instrument flags,Ambient pressure (hPa),Sample flow (lpm),Bypass flow (lpm),Sample temperature (°C),Ambient temperature (°C),ASC tube jacket temperature (°C),LED temperature (°C),Box temperature (°C),Sample RH (%),Span deviation,Mass concentration (μg/m³),Mass concentration (μg/m³),Mass concentration (μg/m³)
DateTimeUTC,F1_M11,P_M11,Q1_M11,Q2_M11,T1_M11,T2_M11,T3_M11,T4_M11,T5_M11,U1_M11,ZSPAN_M11,X0_M11,X2_M11,X1_M11
2022-09-14 14:00:00,,0823.1,5.00,0.00,30.5,27.7,00.0,39.3,32.1,17.7,0002.5,0015.13,0008.41,0007.62
2022-09-14 14:01:00,,0823.1,5.00,0.00,30.5,28.0,00.0,39.3,32.1,17.8,0002.6,0014.70,0008.42,0007.59
2022-09-14 14:02:00,,0823.1,4.99,0.00,30.4,28.2,00.0,39.3,32.1,17.8,0002.4,0014.24,0008.41,0007.55
2022-09-14 14:03:00,,0823.1,5.00,0.00,30.4,28.3,00.0,39.3,32.1,18.0,0002.0,0013.98,0008.34,0007.51
2022-09-14 14:04:00,,0823.1,5.00,0.00,30.4,28.5,00.0,39.3,32.1,18.0,0001.7,0014.43,0008.33,0007.48
2022-09-14 14:05:00,,0823.0,4.99,0.00,30.4,28.6,00.0,39.3,32.1,17.8,0002.2,0014.40,0008.34,0007.46
2022-09-14 14:06:00,,0823.1,5.01,0.00,30.4,28.7,00.0,39.2,32.1,18.0,0002.3,0015.65,0008.38,0007.45
2022-09-14 14:07:00,,0823.1,5.00,0.00,30.4,28.8,00.0,39.2,32.2,18.0,0002.1,0015.88,0008.36,0007.42
2022-09-14 14:08:00,,0823.1,5.01,0.00,30.4,28.9,00.0,39.2,32.2,17.9,0002.1,0016.03,0008.35,0007.38
2022-09-14 14:09:00,,0823.1,4.99,0.00,30.4,28.9,00.0,39.2,32.2,17.8,0002.3,0016.34,0008.34,0007.35
2022-09-14 14:10:00,,0823.1,5.00,0.00,30.4,29.0,00.0,39.2,32.2,18.0,0002.3,0016.21,0008.29,0007.31
2022-09-14 14:11:00,,0823.1,5.00,0.00,30.5,29.0,00.0,39.2,32.2,18.7,0002.7,0016.15,0008.24,0007.28
2022-09-14 14:12:00,,0823.1,5.00,0.00,30.5,29.0,00.0,39.3,32.2,18.3,0002.3,0016.04,0008.20,0007.27
2022-09-14 14:13:00,,0823.1,5.01,0.00,30.5,29.1,00.0,39.3,32.3,18.5,0002.1,0015.62,0008.12,0007.24
2022-09-14 14:14:00,,0823.1,4.99,0.00,30.5,29.1,00.0,39.3,32.3,19.1,0002.4,0015.38,0008.05,0007.20
2022-09-14 14:15:00,,0823.0,4.99,0.00,30.5,29.1,00.0,39.3,32.3,19.7,0002.5,0014.86,0007.93,0007.14
2022-09-14 14:16:00,,0823.1,5.01,0.00,30.5,29.1,00.0,39.3,32.3,18.8,0002.4,0014.59,0007.81,0007.07
2022-09-14 14:17:00,,0823.1,4.99,0.00,30.5,29.2,00.0,39.3,32.3,19.1,0002.4,0012.93,0007.68,0007.02
2022-09-14 14:18:00,,0823.1,5.02,0.00,30.5,29.2,00.0,39.3,32.3,19.9,0002.1,0012.52,0007.58,0006.96
2022-09-14 14:19:00,,0823.1,4.99,0.00,30.6,29.2,00.0,39.3,32.4,19.4,0001.5,0012.00,0007.49,0006.91
2022-09-14 14:20:00,,0823.1,5.02,0.00,30.6,29.2,00.0,39.3,32.4,18.8,0001.3,0011.48,0007.41,0006.84
2022-09-14 14:21:00,,0823.1,4.98,0.00,30.6,29.3,00.0,39.3,32.4,19.4,0001.1,0011.47,0007.32,0006.78
2022-09-14 14:22:00,,0823.2,5.01,0.00,30.6,29.3,00.0,39.3,32.4,19.6,0001.3,0012.37,0007.27,0006.71
2022-09-14 14:23:00,,0823.2,4.98,0.00,30.6,29.3,00.0,39.4,32.4,19.5,0001.4,0012.44,0007.21,0006.64
2022-09-14 14:24:00,,0823.1,5.02,0.00,30.6,29.3,00.0,39.4,32.4,19.4,0001.5,0012.44,0007.16,0006.59
2022-09-14 14:25:00,,0823.2,4.99,0.00,30.7,29.3,00.0,39.4,32.4,19.1,0000.9,0012.78,0007.16,0006.56
2022-09-14 14:26:00,,0823.1,5.00,0.00,30.7,29.4,00.0,39.4,32.5,19.1,0000.8,0013.16,0007.17,0006.55
2022-09-14 14:27:00,,0823.1,4.99,0.00,30.7,29.4,00.0,39.4,32.5,19.4,0000.9,0013.09,0007.17,0006.53
2022-09-14 14:28:00,,0823.1,5.01,0.00,30.7,29.4,00.0,39.4,32.5,19.9,0000.9,0013.36,0007.15,0006.50
2022-09-14 14:29:00,,0823.2,4.99,0.00,30.7,29.4,00.0,39.5,32.5,18.6,0001.2,0013.32,0007.13,0006.50
2022-09-14 14:30:00,,0823.2,5.01,0.00,30.7,29.4,00.0,39.5,32.5,18.5,0002.2,0013.70,0007.16,0006.53
2022-09-14 14:31:00,,0823.2,5.00,0.00,30.7,29.4,00.0,39.5,32.5,18.2,0002.4,0014.22,0007.20,0006.56
2022-09-14 14:32:00,,0823.2,4.99,0.00,30.8,29.4,00.0,39.5,32.5,18.2,0002.1,0014.06,0007.25,0006.58
2022-09-14 14:33:00,,0823.2,5.01,0.00,30.8,29.0,00.0,39.5,32.6,19.2,0001.7,0013.18,0007.24,0006.63
2022-09-14 14:34:00,,0823.2,5.00,0.00,30.8,27.7,00.0,39.4,32.5,18.4,0001.6,0013.27,0007.28,0006.65
2022-09-14 14:35:00,,0823.2,4.99,0.00,30.7,27.3,00.0,39.4,32.4,18.5,0001.3,0013.43,0007.33,0006.70
2022-09-14 14:36:00,,0823.2,5.00,0.00,30.6,27.5,00.0,39.4,32.2,18.9,0001.8,0013.56,0007.39,0006.76
2022-09-14 14:37:00,,0823.3,4.99,0.00,30.5,27.7,00.0,39.3,32.1,18.9,0002.3,0013.16,0007.46,0006.80
2022-09-14 14:38:00,,0823.3,5.01,0.00,30.5,28.0,00.0,39.3,32.1,19.0,0002.5,0012.77,0007.50,0006.84
2022-09-14 14:39:00,,0823.3,4.99,0.00,30.5,28.2,00.0,39.3,32.1,18.6,0002.4,0012.54,0007.56,0006.90
2022-09-14 14:40:00,,0823.4,5.01,0.00,30.4,28.4,00.0,39.3,32.1,18.2,0002.5,0012.85,0007.68,0006.94
2022-09-14 14:41:00,,0823.4,5.00,0.00,30.4,28.6,00.0,39.3,32.1,18.6,0002.0,0012.60,0007.69,0006.96
2022-09-14 14:42:00,,0823.4,4.99,0.00,30.4,28.7,00.0,39.3,32.2,19.2,0001.8,0012.87,0007.68,0006.97
2022-09-14 14:43:00,,0823.4,5.02,0.00,30.4,28.8,00.0,39.2,32.2,19.8,0002.0,0013.00,0007.63,0006.95
2022-09-14 14:44:00,,0823.4,4.99,0.00,30.4,28.9,00.0,39.2,32.2,19.9,0001.8,0012.85,0007.60,0006.92
2022-09-14 14:45:00,,0823.4,5.01,0.00,30.4,28.9,00.0,39.2,32.2,20.5,0001.6,0013.02,0007.56,0006.90
2022-09-14 14:46:00,,0823.4,4.99,0.00,30.5,29.0,00.0,39.2,32.2,20.2,0001.7,0013.19,0007.51,0006.84
2022-09-14 14:47:00,,0823.4,5.00,0.00,30.5,29.0,00.0,39.2,32.2,21.2,0001.6,0012.74,0007.39,0006.76
2022-09-14 14:48:00,,0823.4,5.00,0.00,30.5,29.1,00.0,39.3,32.3,21.8,0001.1,0012.55,0007.28,0006.69
2022-09-14 14:49:00,,0823.3,5.00,0.00,30.5,29.1,00.0,39.3,32.3,21.5,0001.0,0012.44,0007.19,0006.61
2022-09-14 14:50:00,,0823.3,5.01,0.00,30.5,29.1,00.0,39.3,32.3,21.9,0001.2,0012.39,0007.11,0006.55
2022-09-14 14:51:00,,0823.3,4.99,0.00,30.5,29.2,00.0,39.3,32.3,22.4,0000.8,0012.14,0006.99,0006.48
2022-09-14 14:52:00,,0823.4,5.01,0.00,30.5,29.2,00.0,39.3,32.3,22.8,0000.5,0012.24,0006.97,0006.42
2022-09-14 14:53:00,,0823.3,5.00,0.00,30.5,29.2,00.0,39.3,32.3,21.3,0000.7,0011.59,0007.00,0006.40
2022-09-14 14:54:00,,0823.3,5.00,0.00,30.6,29.2,00.0,39.3,32.4,20.5,0000.9,0011.58,0007.06,0006.40
2022-09-14 14:55:00,,0823.3,5.00,0.00,30.6,29.3,00.0,39.3,32.4,20.4,0001.2,0012.14,0007.15,0006.42
2022-09-14 14:56:00,,0823.4,5.00,0.00,30.6,29.3,00.0,39.3,32.4,19.7,0001.4,0011.90,0007.20,0006.44
2022-09-14 14:57:00,,0823.4,4.99,0.00,30.6,29.3,00.0,39.4,32.4,20.8,0001.4,0011.49,0007.22,0006.47
2022-09-14 14:58:00,,0823.4,5.01,0.00,30.6,29.3,00.0,39.4,32.4,21.0,0001.8,0011.60,0007.26,0006.50
2022-09-14 14:59:00,,0823.3,4.99,0.00,30.7,29.4,00.0,39.4,32.5,20.6,0002.2,0012.22,0007.33,0006.54
